カタログに戻る

THORAD AGENA D R/B

運用中SSO
NORAD 3892·ROCKET BODY·🇺🇸 United States

打ち上げ Apr 14, 1969 から Vandenberg Space Force Base

Loading…

次のパス (今後24時間)

TLE

最新Source: Space-Track

元期: Sep 14, 2026, 23:18 UTC

1 03892U 69037C   26257.97119712  .00000001  00000-0  79874-4 0  9996
2 03892  99.8921 164.9970 0038612 207.0494 170.0000 13.42162400811487

AllMySatでTHORAD AGENA D R/Bをリアルタイム追跡

Download on the App Store